This demonstration page uses our WeatherBlox Daily Observations layout. Learn more.

Left ArrowRight Arrow

38.83388, -104.82136

Hourly Observations for May 15, 2022

Temp ( °F °C ) Dew Point ( °F °C ) Humidity (%) Winds ( mph kmh ) Pressure ( in mb ) Visibility ( mi km ) Precip ( " mm )
1:58 am 01:58 undefined N/A N/A N/A undefined N/A N/A N/A 0.00 0.00
2:58 am 02:58 Clear 59 15.1 18 -7.7 20 20 WNW 3 6 29.70 1006 10 16 0.00 0.00
3:58 am 03:58 undefined 59 15.2 18 -7.6 20 20 WNW 7 11 29.69 1005 10 16 0.00 0.00
4:58 am 04:58 Clear 58 14.4 18 -7.7 21 21 NW 12 19 29.72 1007 10 16 0.00 0.00
5:58 am 05:58 Sunny 58 14.5 19 -7 22 22 Calm 29.73 1007 10 16 0.00 0.00
6:58 am 06:58 Sunny 63 17.4 19 -7.2 18 18 N 13 20 29.78 1008 10 16 0.00 0.00
7:58 am 07:58 Sunny 64 17.9 22 -5.4 20 20 N 7 11 29.82 1010 10 16 0.00 0.00
8:58 am 08:58 undefined 67 19.6 26 -3.3 21 21 NE 9 15 29.95 1014 10 16 0.00 0.00
9:58 am 09:58 Sunny 69 20.4 25 -4 19 19 NNE 7 11 29.94 1014 10 16 0.00 0.00
10:58 am 10:58 Sunny 70 21.3 27 -2.6 20 20 ESE 8 13 29.90 1012 10 16 0.00 0.00
11:58 am 11:58 Sunny 72 22.2 31 -0.5 22 22 ESE 13 20 29.90 1012 10 16 0.00 0.00
12:58 pm 12:58 Sunny 72 22.3 30 -1.1 21 21 ESE 15 24 29.90 1012 10 16 0.00 0.00
1:19 pm 13:19 Sunny 73 23 30 -1 20 20 SSE 17 28 29.89 1012 10 16 0.00 0.00
1:25 pm 13:25 Sunny 72 22 30 -1 22 22 S 15 24 29.92 1013 10 16 0.00 0.00
1:29 pm 13:29 Sunny 72 22 30 -1 22 22 SE 16 26 29.92 1013 10 16 0.00 0.00
1:58 pm 13:58 Sunny 73 22.6 31 -0.8 21 21 SE 12 19 29.89 1012 10 16 0.00 0.00
2:07 pm 14:07 Sunny 73 23 30 -1 20 20 SSE 13 20 29.89 1012 10 16 0.00 0.00
2:18 pm 14:18 Mostly Sunny 73 23 30 -1 20 20 ESE 13 20 29.89 1012 10 16 0.00 0.00
2:58 pm 14:58 Mostly Sunny 73 22.5 30 -0.9 21 21 SSE 18 30 29.87 1012 10 16 0.00 0.00
3:58 pm 15:58 Sunny 71 21.8 29 -1.5 21 21 SSE 16 26 29.83 1010 10 16 0.00 0.00
4:58 pm 16:58 Partly Cloudy 71 21.5 29 -1.8 21 21 SE 17 28 29.83 1010 10 16 0.00 0.00
5:58 pm 17:58 Sunny 69 20.5 28 -2 22 22 SSE 16 26 29.80 1009 10 16 0.00 0.00
6:58 pm 18:58 Sunny 68 20 29 -1.8 23 23 SSE 17 28 29.78 1008 10 16 0.00 0.00
7:58 pm 19:58 Mostly Cloudy 66 19 29 -1.5 25 25 S 15 24 29.87 1011 10 16 0.00 0.00
8:58 pm 20:58 Cloudy 65 18.4 30 -0.9 27 27 S 17 28 29.79 1009 10 16 0.00 0.00
9:58 pm 21:58 Cloudy 63 17.4 31 -0.8 29 29 S 16 26 29.79 1009 10 16 0.00 0.00
10:58 pm 22:58 Clear 62 16.4 31 -0.8 31 31 S 15 24 29.78 1008 10 16 0.00 0.00
11:58 pm 23:58 undefined N/A N/A N/A SSW 21 33 N/A N/A 0.00 0.00

Powered by AerisWeather